TIME,DELAY(SENSOR),PRES,T(CTD),SAL,OXYGEN,RAWTEMP,T(OPTODE),TCPHASE,FLUOR,BETA(BETA700),BETA(BETA412),BETA(BETA440),CDOM,C(CSC),ED(ED411.90),ED(ED443.80),ED(ED489.40),ED(ED554.70),LU(LU412.20),LU(LU443.80),LU(LU489.40),LU(LU555.00),COMP,TILTX,TILTX(TILTY),CHECK
1378048132,5809,496.7999877929687500,17.7029991149902340,36.4920997619628900,211.3527069091797000,165.1486968994140600,17.6994094848632800,32.0835418701171900,97,3345,49,50,48,10120,2146958811,2147514861,2147271963,2147452882,2147075675,2146951021,2147654070,2147129060,1748,-1,8,13394
1378048238,5804,486.2399902343750000,17.7471008300781250,36.4962005615234400,212.5086975097656200,163.6361999511718800,17.7450599670410160,32.0000190734863300,96,3320,49,50,47,10117,2146960667,2147513334,2147274459,2147452809,2147074870,2146950061,2147651035,2147129508,1154,-1,8,15794
1378048353,5805,474.6600036621094000,17.7982997894287100,36.5052986145019500,213.7469024658203000,162.0688018798828000,17.7923793792724600,31.9109992980957030,96,3338,48,50,50,10116,2146962029,2147514715,2147276955,2147450002,2147078939,2146952676,2147655195,2147127561,3433,-1,8,19193
1378048456,5809,464.2399902343750000,17.8528003692626950,36.5135002136230500,213.8161926269531200,160.2140960693359400,17.8483695983886720,31.8816699981689450,96,3359,49,50,48,10117,2146958546,2147514139,2147273252,2147446893,2147075273,2146960448,2147652726,2147126875,2739,-1,8,13910
1378048588,5805,452.3800048828125000,17.9293994903564450,36.5248985290527340,214.5953063964843800,157.7637939453125000,17.9223499298095700,31.8062705993652340,97,3334,48,50,47,10118,2146960137,2147510729,2147275922,2147452507,2147082386,2146955245,2147652864,2147128283,1951,-2,8,5671
1378048729,5803,441.8500061035156000,17.9631004333496100,36.5298995971679700,215.0711975097656200,156.6065063476562500,17.9573001861572270,31.7648792266845700,96,3349,50,50,49,10116,2146961837,2147509293,2147273590,2147450358,2147073133,2146954194,2147648777,2147129792,1168,-1,8,61436
1378048896,5806,427.9899902343750000,18.0270004272460940,36.5372009277343750,217.0608062744140600,154.4515991210937500,18.0223808288574220,31.6295604705810550,96,3349,50,50,48,10114,2146958363,2147513929,2147274468,2147450276,2147079661,2146948973,2147651913,2147128932,493,-1,7,40451
1378049007,5806,416.8999938964844000,18.0993995666503900,36.5437011718750000,219.1732025146484400,152.0077056884765600,18.0961894989013670,31.4848995208740230,97,3352,48,51,48,10115,2146955995,2147516352,2147271478,2147449243,2147077549,2146954020,2147651062,2147129398,3105,-1,8,29126
1378049124,5809,405.1199951171875000,18.1429004669189450,36.5438003540039060,220.9140014648437500,150.5971069335937500,18.1387996673584000,31.3750305175781250,96,3363,48,50,47,10118,2146960000,2147513289,2147272758,2147449773,2147070802,2146959259,2147649078,2147128256,2726,-1,8,37410
1378049239,5804,393.6499938964844000,18.1989994049072270,36.5494003295898440,222.7147064208984400,148.6654968261718800,18.1971607208251950,31.2561206817626950,97,3350,49,51,48,10119,2146960146,2147509760,2147272365,2147451456,2147066112,2146957485,2147650422,2147127040,2180,-2,8,59090
1378049354,5806,382.4599914550781000,18.2607002258300780,36.5573005676269500,220.2138061523437500,146.6499023437500000,18.2580604553222660,31.3579807281494140,95,3352,48,50,48,10118,2146957065,2147511533,2147271945,2147451922,2147068342,2146957357,2147650304,2147129810,1755,-1,8,6061
1378049471,5805,371.2999877929687500,18.2966995239257800,36.5563011169433600,221.3674011230468800,145.5668945312500000,18.2907791137695300,31.2836208343505860,95,3334,49,50,48,10120,2146959744,2147511771,2147271204,2147448338,2147080182,2146955209,2147653312,2147128109,1329,-1,8,46961
1378049598,5808,359.6799926757812500,18.3223991394042970,36.5554008483886700,225.4275970458984400,144.6795959472656200,18.3176002502441400,31.0645008087158200,96,3349,48,50,48,10121,2146959698,2147511881,2147271844,2147446235,2147074130,2146956169,2147653229,2147126994,953,-1,8,54229
1378049725,5808,348.4500122070312500,18.3384990692138670,36.5541000366210940,227.8450927734375000,144.0661926269531200,18.3361301422119140,30.9347801208496100,95,3318,48,50,49,10120,2146960018,2147513371,2147269092,2147448027,2147078445,2146958116,2147654482,2147127789,429,-1,8,56
1378049855,5806,337.6300048828125000,18.3645992279052730,36.5518989562988300,231.2763977050781200,143.3045959472656200,18.3591499328613280,30.7551994323730470,96,3339,48,50,48,10122,2146961152,2147510994,2147273005,2147449408,2147080950,2146957613,2147657645,2147128685,2908,-1,8,26487
1378049994,5806,326.5199890136719000,18.3808994293212900,36.5521011352539060,234.3898010253906200,142.7122955322265600,18.3770599365234380,30.5961208343505860,96,3386,49,50,49,10121,2146959853,2147511661,2147270573,2147446902,2147073645,2146959177,2147660224,2147126802,2132,-1,8,16649
1378050135,5807,315.7500000000000000,18.4006996154785160,36.5535011291503900,235.9535980224609400,141.9929046630859400,18.3987998962402340,30.5113906860351560,96,3338,49,50,48,10121,2146956205,2147514185,2147271414,2147446372,2147081371,2146958848,2147657627,2147125321,1453,-1,8,58832
1378050286,5806,304.3900146484375000,18.4281997680664060,36.5563011169433600,235.8618011474609400,141.1598968505859400,18.4239807128906250,30.5045509338378900,95,3335,49,50,49,10117,2146960201,2147515949,2147270253,2147448137,2147068278,2146962276,2147661961,2147127049,536,-1,8,7121
1378050422,5807,293.5100097656250000,18.4645004272460940,36.5597991943359400,236.4389953613281200,139.9860992431640600,18.4594707489013670,30.4614791870117200,96,3338,49,51,49,10119,2146962020,2147513462,2147271945,2147450560,2147072356,2146963638,2147671222,2147127168,3001,-1,8,59484
1378050543,5802,281.8399963378906000,18.4918994903564450,36.5603981018066400,236.1242980957031200,139.1806030273437500,18.4838199615478500,30.4659309387207030,94,3335,47,50,49,10120,2146959497,2147515181,2147271296,2147447396,2147073106,2146970185,2147679378,2147130989,2444,-1,8,33563
1378050646,5806,271.0299987792969000,18.5149993896484380,36.5592994689941400,236.1950988769531200,138.2440032958984400,18.5121402740478500,30.4501800537109380,94,3312,48,50,48,10119,2146961005,2147513325,2147273444,2147445814,2147077577,2146963821,2147671021,2147129810,1882,-1,8,10897
1378050752,5802,259.6000061035156000,18.5592994689941400,36.5629005432128900,235.2102966308593800,136.7985992431640600,18.5558395385742200,30.4781303405761720,94,3341,49,50,49,10119,2146959442,2147514953,2147270610,2147445385,2147075392,2146969334,2147672576,2147130660,1046,-1,8,28111
1378050855,5803,248.1600036621093800,18.6201000213623050,36.5680999755859400,232.6865997314453000,134.8394012451172000,18.6150894165039060,30.5737705230712900,94,3339,49,50,49,10117,2146958317,2147512356,2147271341,2147444544,2147073974,2146976128,2147690093,2147130404,455,-1,7,30997
1378050958,5810,236.5099945068359400,18.6784000396728500,36.5690994262695300,230.6947937011718800,132.6257019042968800,18.6820392608642580,30.6413593292236330,96,3350,49,51,48,10115,2146960237,2147512210,2147271030,2147446189,2147071085,2146975981,2147686729,2147129142,460,-1,8,27204
1378051090,5805,222.7299957275390600,18.7849998474121100,36.5797996520996100,228.0933074951172000,129.4797058105468800,18.7772197723388670,30.7276401519775400,96,3365,48,50,48,10115,2146960722,2147513481,2147270893,2147442093,2147076708,2146991158,2147710208,2147131273,3103,-1,8,55987
1378051208,5807,211.9100036621093800,18.8537998199462900,36.5870018005371100,224.5471954345703000,127.0944976806640600,18.8493900299072270,30.8733692169189450,95,3368,49,51,48,10109,2146960722,2147514157,2147273627,2147444068,2147072466,2147013723,2147764644,2147134198,2830,-1,8,13277
1378051325,5805,201.2100067138672000,18.9318008422851560,36.5924987792968750,220.4151000976562500,124.6346969604492200,18.9238395690917970,31.0514793395996100,96,3375,50,50,47,10114,2146959872,2147514176,2147275904,2147442870,2147085641,2147045659,2147827446,2147139547,3261,-1,8,46752
1378051380,5807,196.3200073242187500,18.9547996520996100,36.5894012451171900,220.9185028076172000,123.7702026367187500,18.9500102996826170,31.0142402648925780,96,3357,48,50,49,10111,2146958162,2147517101,2147272649,2147446016,2147079268,2147037860,2147802377,2147139264,3031,-1,8,60864
1378051435,5802,191.4400024414062500,18.9633998870849600,36.5887985229492200,220.9432067871093800,123.2003021240234400,18.9672603607177730,31.0051498413085940,95,3373,48,51,48,10107,2146957120,2147523200,2147277696,2147445348,2147088603,2147099099,2147923739,2147146953,2518,-2,8,23609
1378051490,5803,186.6000061035156200,19.0200004577636720,36.5885009765625000,222.1945953369140600,121.6371002197265600,19.0145893096923830,30.9201202392578120,96,3358,49,50,48,10111,2146958582,2147518509,2147277531,2147444589,2147098998,2147153316,2148017892,2147151030,2276,-1,8,48685
1378051545,5803,181.8999938964843800,19.0881004333496100,36.5952987670898440,222.0126953125000000,119.4216003417968800,19.0816707611084000,30.9001407623291000,95,3368,49,51,48,10110,2146956242,2147519771,2147281042,2147441810,2147104054,2147178404,2148058377,2147151341,2138,-1,8,44473
1378051600,5802,177.3099975585937500,19.1112995147705080,36.5982017517089840,220.9080963134765600,118.4291992187500000,19.1117305755615230,30.9432601928710940,96,3357,48,50,48,10109,2146960036,2147523803,2147283693,2147442441,2147108836,2147231990,2148140489,2147157814,2011,-1,8,65519
1378051684,5805,170.9900054931640600,19.1436996459960940,36.5903015136718750,221.9609069824218800,117.6358032226562500,19.1357593536376950,30.8787708282470700,96,3370,48,51,47,10105,2146960996,2147529051,2147287350,2147445988,2147118793,2147310464,2148269211,2147165933,1402,-2,8,18204
1378051739,5801,167.3600006103515600,19.1669998168945300,36.5868988037109400,223.8863067626953000,116.7974014282226600,19.1611499786376950,30.7696800231933600,96,3368,49,50,48,10101,2146958528,2147526025,2147289133,2147444388,2147128905,2147327771,2148296704,2147168201,1037,-2,8,55107
1378051794,5804,163.8099975585937500,19.1935997009277340,36.5872993469238300,225.8959960937500000,115.6650009155273400,19.1954593658447270,30.6539993286132800,96,3358,49,50,49,10103,2146962706,2147526500,2147298121,2147443794,2147152429,2147432466,2148467364,2147178422,1069,-1,9,64100
1378051849,5802,160.1799926757812500,19.2348995208740230,36.5881996154785160,228.5576934814453000,114.4468994140625000,19.2323608398437500,30.5055999755859380,96,3368,49,50,48,10099,2146963062,2147531913,2147302070,2147443282,2147175058,2147546368,2148648137,2147183506,1260,-1,8,58583
1378051916,5806,155.8500061035156200,19.2894001007080080,36.5903015136718750,229.6204071044922000,112.6508026123046900,19.2867794036865230,30.4297790527343750,97,3372,48,50,48,10095,2146960777,2147533394,2147304868,2147444297,2147186130,2147592795,2148702134,2147193106,1372,-1,9,48795
1378052001,5810,150.9900054931640600,19.4158000946044920,36.6063995361328100,225.9506072998047000,108.8057022094726600,19.4033203125000000,30.5603008270263670,96,3368,49,51,47,10101,2146961910,2147532114,2147307428,2147444836,2147217170,2147692205,2148843520,2147202212,1780,-1,9,36041
1378052080,5806,147.6499938964843800,19.4295997619628900,36.6043014526367200,223.1661987304687500,108.1232986450195300,19.4240093231201170,30.6913108825683600,97,3372,48,50,50,10093,2146963392,2147538486,2147310070,2147444608,2147242980,2147799862,2148990025,2147210304,2190,-1,8,9752
1378052183,5803,144.0599975585937500,19.4824008941650400,36.6063995361328100,223.8847961425781200,106.5103988647461000,19.4729099273681640,30.6335391998291000,96,3375,50,50,48,10097,2146962075,2147540333,2147311625,2147442614,2147260004,2147843044,2149023945,2147215003,2135,-1,9,51018
1378052311,5805,139.9900054931640600,19.5799999237060550,36.6120986938476560,224.6239013671875000,103.3056030273437500,19.5701007843017580,30.5541591644287100,97,3381,48,50,47,10093,2146966948,2147546715,2147320173,2147445586,2147323126,2148046134,2149296722,2147234066,1572,-1,8,10217
1378052414,5804,136.0000000000000000,19.6453990936279300,36.6158981323242200,226.3889007568359400,101.1542968750000000,19.6353492736816400,30.4376201629638670,97,3391,48,50,49,10096,2146968192,2147550217,2147326537,2147444187,2147383277,2148217718,2149507510,2147247771,1629,-1,8,44369
1378052541,5805,131.9700012207031200,19.7115001678466800,36.6151008605957000,227.2310943603515600,98.7966232299804700,19.7068901062011720,30.3647804260253900,96,3372,49,50,48,10097,2146971538,2147557650,2147335058,2147441956,2147461522,2148434816,2149785874,2147272265,1293,-1,9,28096
1378052651,5807,127.6500015258789000,19.8127002716064450,36.6083984375000000,230.2584991455078000,95.6341629028320300,19.8028793334960940,30.1750297546386720,96,3391,49,51,46,10091,2146970779,2147552329,2147330203,2147442998,2147475218,2148329563,2149558756,2147256310,873,-2,8,50815
1378052742,5807,123.1800003051757800,19.8892993927001950,36.5988006591796900,237.1589965820312500,93.0019836425781200,19.8827896118164060,29.8113899230957030,96,3370,48,50,48,10084,2146973632,2147560658,2147340973,2147444013,2147579821,2148578816,2149879661,2147282953,3565,-1,9,12250
1378052821,5805,119.3300018310546900,20.0785999298095700,36.5889015197753900,245.5532073974609400,87.1606063842773400,20.0602207183837900,29.3508491516113280,97,3368,48,50,48,10076,2146979922,2147563766,2147347190,2147442194,2147670912,2148762349,2150110281,2147307867,2734,-2,9,46353
1378052902,5808,115.6600036621093800,20.1721992492675780,36.5908012390136700,251.9214019775390600,83.9297866821289000,20.1584091186523440,29.0279808044433600,97,3370,49,51,48,10071,2146981412,2147561682,2147345792,2147442861,2147710793,2148748242,2150041837,2147307995,2596,-1,8,43951
1378052993,5811,111.9100036621093800,20.2831001281738280,36.5904006958007800,256.4620056152344000,80.3588027954101600,20.2669792175292970,28.7872009277343750,97,3381,49,50,48,10062,2146983012,2147572946,2147352566,2147440173,2147817993,2148888749,2150153728,2147322806,2768,-1,8,39692
1378053096,5804,108.1299972534179700,20.4734992980957030,36.6040000915527340,257.5098876953125000,74.1802978515625000,20.4549503326416000,28.6646003723144530,98,3370,49,50,49,10042,2146990134,2147580608,2147367314,2147442715,2148018587,2149248329,2150572150,2147360630,2475,-1,8,46568
1378053240,5806,103.0599975585937500,20.6137008666992200,36.6128997802734400,254.2384033203125000,69.2194366455078100,20.6059799194335940,28.7413997650146500,99,3380,48,51,48,10035,2147004937,2147599204,2147388836,2147441289,2148347190,2149755547,2151114706,2147418505,2246,-1,8,22204
1378053319,5808,99.4700012207031200,20.8278999328613280,36.6171989440918000,261.8219909667969000,62.5574684143066400,20.8089504241943360,28.3380794525146500,96,3363,49,51,48,10039,2147008411,2147597696,2147379593,2147445110,2148415844,2149672356,2150856777,2147409307,2692,-2,8,36851
1378053374,5806,97.4000015258789000,20.8362007141113280,36.6123008728027340,268.8388061523437500,62.0201988220214840,20.8253307342529300,28.0459098815917970,98,3364,47,50,47,10045,2147027401,2147634459,2147431561,2147442925,2149049865,2150902025,2152308214,2147536585,2343,-1,9,52286
1378053429,5810,95.4700012207031200,20.8668003082275400,36.6041984558105500,273.0633850097656000,60.7470893859863300,20.8641395568847660,27.8624095916748050,98,3370,49,50,49,10044,2147029056,2147623469,2147414171,2147444425,2148966747,2150543753,2151710043,2147492836,1883,-2,9,64477
1378053484,5805,93.6399993896484400,20.8980998992919920,36.5931015014648440,272.7856140136719000,58.5715408325195300,20.9304790496826170,27.8464393615722660,97,3384,48,50,48,10041,2147017865,2147604278,2147380342,2147438829,2148702573,2149830134,2150712795,2147407030,1582,-2,8,48439
1378053571,5803,90.4499969482421900,21.1441001892089840,36.5779991149902340,277.5555114746094000,51.0398788452148440,21.1602993011474600,27.5679798126220700,98,3380,49,51,47,10033,2147070793,2147682340,2147477824,2147447094,2150099081,2152177252,2153213595,2147653302,1130,-1,8,62693
1378053626,5806,87.9599990844726600,21.3773994445800780,36.5663986206054700,285.7412109375000000,44.8209609985351560,21.3502597808837900,27.1822395324707030,97,3366,48,50,48,10024,2147091620,2147707428,2147504137,2147445732,2150661869,2152898834,2153794962,2147716352,642,-1,9,33961
1378053681,5805,85.5199966430664000,21.5527000427246100,36.5662002563476560,296.7619018554687500,39.5446090698242200,21.5115604400634770,26.7182807922363280,96,3365,47,50,48,10028,2147084763,2147687241,2147471186,2147445632,2150455323,2152242962,2152851675,2147633682,802,-1,8,13853
1378053736,5807,83.4100036621093800,21.6728992462158200,36.5657005310058600,305.8212890625000000,34.8524398803710940,21.6551208496093750,26.3460807800292970,96,3368,48,51,48,10020,2147268864,2147954459,2147797129,2147463817,2155355876,2160303826,2161350482,2148453878,989,-1,9,40280
1378053791,5806,81.5400009155273400,21.7759990692138670,36.5708999633789060,327.7838134765625000,31.7402305603027340,21.7504005432128900,25.5870609283447270,97,3361,47,50,47,10025,2147219995,2147868726,2147669238,2147458496,2154049700,2157768685,2158352173,2148176731,1341,-2,9,16397
1378053876,5807,78.5800018310546900,21.9841995239257800,36.5859985351562500,333.5197143554687500,24.9186401367187500,21.9594001770019530,25.3275108337402340,98,3364,49,51,49,10022,2147396489,2148098541,2147911405,2147470107,2158610642,2164489316,2164745316,2148820224,1727,-1,9,38441
1378053931,5806,76.2600021362304700,21.9899997711181640,36.5866012573242200,337.6697082519531000,23.7784004211425780,21.9943599700927730,25.1867408752441400,97,3356,48,51,47,10016,2147474331,2148176841,2147975122,2147470601,2160550601,2166898240,2166621604,2149021750,1902,-1,9,30566
1378053986,5804,74.0000000000000000,22.1086997985839840,36.5732002258300800,343.4876098632812500,19.3747806549072270,22.1294307708740230,24.9597492218017580,96,3354,48,50,47,10021,2147596059,2148321206,2148106898,2147479606,2163714477,2171014601,2170037302,2149374454,1977,-2,9,24002
1378054041,5803,72.1900024414062500,22.3080005645751950,36.5624008178710940,356.7923889160156000,14.2470397949218750,22.2868499755859380,24.5114994049072270,97,3343,48,50,48,10019,2147496978,2148165421,2147928000,2147468361,2161040393,2166401892,2165073325,2148885641,2072,-1,9,56185
1378054120,5804,70.4700012207031200,22.5830993652343750,36.5527992248535160,380.2442932128906000,6.2884478569030760,22.5314407348632800,23.7736892700195300,97,3336,48,50,48,10013,2147797961,2148531437,2148291346,2147491547,2168732224,2177240082,2174893037,2149877101,2366,-2,8,13291
1378054229,5808,67.8700027465820300,22.9612998962402340,36.5721015930175800,422.7052917480469000,-6.6960988044738770,22.9312705993652340,22.5636596679687500,97,3335,49,51,48,10017,2148077650,2148851739,2148586724,2147511396,2176003035,2186247689,2182354578,2150702308,1653,-1,9,55316
1378054284,5806,66.2300033569336000,23.1527004241943360,36.5755004882812500,435.0136108398437500,-10.8662395477294920,23.0598907470703120,22.2310390472412100,95,3319,49,50,49,10002,2148114112,2148873170,2148604507,2147509394,2177035044,2186951945,2182444726,2150743488,1502,-1,9,32392
1378054375,5809,64.6600036621093800,23.1898002624511720,36.5793991088867200,496.4515075683594000,-14.8501996994018550,23.1828708648681640,20.8781890869140620,95,3310,49,50,47,10011,2148262756,2149027995,2148721746,2147517933,2180820516,2191605577,2186103698,2151153298,1883,-1,9,37669
1378054544,5807,62.2999992370605500,23.3286991119384770,36.5518989562988300,511.3283081054687500,-19.3008308410644530,23.3203601837158200,20.5387306213378900,95,3332,48,50,47,10015,2148513408,2149242349,2148858276,2147525787,2186546084,2197377865,2189376612,2151498678,2748,-1,9,63547
1378054623,5806,59.8899993896484400,23.6180000305175780,36.5345993041992200,520.3273925781250000,-28.0608501434326170,23.5913391113281250,20.2722606658935550,96,3282,48,50,48,10011,2148695698,2149399789,2149048192,2147563812,2191348150,2201537828,2191640886,2151824146,569,-2,9,2848
1378054690,5805,58.2999992370605500,24.1000003814697270,36.5041999816894500,564.3352050781250000,-41.6383399963378900,24.0123291015625000,19.3303108215332030,95,3329,48,50,47,10011,2148645869,2149301494,2148905865,2147552813,2189570176,2198256237,2188149348,2151491053,368,-1,8,20860
1378054835,5804,56.6699981689453100,24.6168994903564450,36.4832992553710940,599.9000244140625000,-59.0833396911621100,24.5550804138183600,18.5476703643798830,95,3271,48,50,48,10011,2149092196,2149753801,2149219419,2147550902,2201107776,2212148452,2199164132,2152716608,2198,-2,9,11777
1378055235,5808,53.0600013732910160,25.0671005249023440,36.4749984741210940,513.6019897460938000,-73.9669799804687500,25.0198593139648440,19.9054603576660160,94,3221,49,51,48,10002,2148974994,2149550153,2148986733,2147534838,2197909760,2205573321,2192225865,2152064530,1913,-2,8,37320
1378055270,5807,52.8400001525878900,25.1445999145507800,36.4776000976562500,510.1001892089844000,-76.6939620971679700,25.1051998138427730,19.9430809020996100,94,3226,48,50,47,10005,2149074916,2149654637,2149081545,2147546258,2200431533,2208494482,2194475172,2152327369,1791,-2,9,60072
1378055528,5806,50.9399986267089840,26.2696990966796880,36.5022010803222660,566.8322753906250000,-111.6585998535156200,26.2045803070068360,18.5433692932128900,92,3207,47,51,49,9996,2149865115,2150425124,2149759542,2147620726,2219918829,2230189915,2210186102,2154160722,296,-2,9,42849
1378056113,5804,48.7099990844726560,26.9209995269775400,36.3875007629394500,599.1486206054688000,-130.5942993164062500,26.8042392730712900,17.8059692382812500,94,3204,48,50,47,9994,2149327707,2149794386,2149123062,2147558518,2205978806,2211294043,2193815963,2152321033,1044,-2,8,25495
1378056593,5807,46.9900016784668000,27.2758007049560550,36.3334999084472660,412.9677124023437500,-144.5666961669922000,27.2487792968750000,21.2723197937011720,92,3149,49,50,48,9994,2148859446,2149291273,2148670564,2147512283,2193871561,2196814189,2182478838,2151051721,939,-3,9,22502
1378056759,5806,45.9500007629394500,27.4402999877929700,36.2981986999511700,467.5686950683594000,-150.6423950195312500,27.4426403045654300,19.9964103698730470,93,3167,48,50,48,10001,2149560996,2149967478,2149211126,2147567259,2211081965,2215496640,2195864201,2152627264,1006,-2,9,57239
1378057004,5808,43.7099990844726560,27.4568996429443360,36.2977981567382800,614.1373291015625000,-151.3236999511718800,27.4643993377685550,17.3492908477783200,93,3176,48,50,47,10010,2150773705,2151034377,2149903204,2147593654,2240899867,2246414244,2216289334,2155007524,2707,-1,9,29319
1378057050,5807,41.8600006103515600,27.4515991210937500,36.2942008972168000,585.7869873046875000,-151.1979980468750000,27.4603900909423830,17.8076305389404300,92,3163,49,50,47,10009,2150246875,2150466368,2149407350,2147562569,2226959222,2228604918,2201831899,2153418505,2501,-1,9,36418
1378057096,5806,39.7999992370605500,27.4519996643066400,36.2943000793457000,555.9050903320312000,-151.2239074707031200,27.4612102508544920,18.3136997222900400,91,3169,49,50,47,10006,2150527122,2150682112,2149545929,2147580370,2234675328,2235576173,2205955830,2154066258,2246,-1,9,52832
1378057142,5806,37.6899986267089840,27.4549999237060550,36.2944984436035160,540.4008178710938000,-151.3656005859375000,27.4657402038574220,18.5858097076416000,92,3176,49,51,48,10007,2151484918,2151553819,2150177499,2147645641,2254881298,2255385956,2218858066,2155957312,2018,-1,9,31203
1378057188,5808,35.5499992370605500,27.4578990936279300,36.2938995361328100,525.7440185546875000,-151.3993072509765600,27.4668197631835940,18.8515491485595700,92,3167,47,50,47,10010,2151302811,2151314761,2149978934,2147637778,2257530624,2256927588,2219334902,2156121435,1799,-1,9,3506
1378057234,5808,33.3499984741210940,27.4608001708984380,36.2939987182617200,526.5974731445312000,-151.5312957763672000,27.4710292816162100,18.8344306945800780,91,3167,49,51,47,10011,2152555849,2152483803,2150880941,2147749321,2291370633,2291893650,2243613997,2159994011,1638,-1,9,34109